Météo par heure à Abakanovo

Ce jour, 18 Avril, Dimanche

Heure Température Précipitation Vent Pression Humidité
00:00 +6°C° 0 mm 4 m/s 744 mmHg 70%
01:00 +5°C° 0 mm 3 m/s 744 mmHg 70%
02:00 +4°C° 0 mm 3 m/s 744 mmHg 70%
03:00 +4°C° 0 mm 3 m/s 744 mmHg 71%
04:00 +4°C° 0 mm 4 m/s 744 mmHg 72%
05:00 +3°C° 0 mm 4 m/s 744 mmHg 74%
06:00 +5°C° 0 mm 4 m/s 744 mmHg 69%
07:00 +6°C° 0 mm 4 m/s 744 mmHg 65%
08:00 +7°C° 0 mm 5 m/s 744 mmHg 60%
09:00 +8°C° 0 mm 5 m/s 744 mmHg 55%
10:00 +10°C° 0 mm 5 m/s 744 mmHg 50%
11:00 +12°C° 0 mm 5 m/s 744 mmHg 45%
12:00 +12°C° 0 mm 5 m/s 744 mmHg 43%
13:00 +13°C° 0 mm 5 m/s 744 mmHg 41%
14:00 +13°C° 0 mm 4 m/s 744 mmHg 39%
15:00 +13°C° 0 mm 4 m/s 744 mmHg 41%
16:00 +13°C° 0 mm 4 m/s 744 mmHg 42%
17:00 +12°C° 0 mm 3 m/s 744 mmHg 44%
18:00 +11°C° 0 mm 3 m/s 744 mmHg 51%
19:00 +9°C° 0 mm 3 m/s 744 mmHg 57%
20:00 +7°C° 0 mm 3 m/s 745 mmHg 64%
21:00 +7°C° 0 mm 3 m/s 745 mmHg 67%
22:00 +5°C° 0 mm 3 m/s 745 mmHg 69%
23:00 +5°C° 0 mm 3 m/s 745 mmHg 71%

Demain, 19 Avril, Lundi

Heure Température Précipitation Vent Pression Humidité
00:00 +4°C° 0 mm 3 m/s 745 mmHg 75%
01:00 +4°C° 0 mm 3 m/s 745 mmHg 79%
02:00 +3°C° 0 mm 3 m/s 745 mmHg 83%
03:00 +3°C° 0 mm 3 m/s 745 mmHg 86%
04:00 +2°C° 0 mm 3 m/s 745 mmHg 89%
05:00 +2°C° 0 mm 3 m/s 745 mmHg 91%
06:00 +3°C° 0 mm 3 m/s 745 mmHg 86%
07:00 +4°C° 0 mm 3 m/s 746 mmHg 80%
08:00 +6°C° 0 mm 4 m/s 746 mmHg 75%
09:00 +6°C° 0 mm 4 m/s 746 mmHg 70%
10:00 +7°C° 0 mm 4 m/s 746 mmHg 66%
11:00 +8°C° 0 mm 4 m/s 746 mmHg 62%
12:00 +8°C° 0 mm 4 m/s 746 mmHg 61%
13:00 +8°C° 0 mm 4 m/s 746 mmHg 61%
14:00 +8°C° 0 mm 4 m/s 746 mmHg 60%
15:00 +8°C° 0 mm 3 m/s 745 mmHg 62%
16:00 +8°C° 0 mm 3 m/s 745 mmHg 64%
17:00 +7°C° 0 mm 3 m/s 745 mmHg 66%
18:00 +7°C° 0 mm 3 m/s 745 mmHg 67%
19:00 +5°C° 0 mm 3 m/s 745 mmHg 67%
20:00 +6°C° 0 mm 2 m/s 745 mmHg 68%
21:00 +5°C° 0 mm 3 m/s 745 mmHg 69%
22:00 +4°C° 0 mm 3 m/s 745 mmHg 70%
23:00 +4°C° 0 mm 3 m/s 745 mmHg 70%

Après-demain, 20 Avril, Mardi

Heure Température Précipitation Vent Pression Humidité
00:00 +3°C° 0 mm 3 m/s 744 mmHg 74%
01:00 +3°C° 0 mm 2 m/s 744 mmHg 79%
02:00 +2°C° 0 mm 2 m/s 744 mmHg 83%
03:00 +2°C° 0 mm 2 m/s 744 mmHg 85%
04:00 +1°C° 0 mm 3 m/s 743 mmHg 87%
05:00 0°C° 0 mm 3 m/s 743 mmHg 89%
06:00 +1°C° 0 mm 3 m/s 743 mmHg 80%
07:00 +1°C° 0 mm 4 m/s 743 mmHg 72%
08:00 +3°C° 0 mm 4 m/s 742 mmHg 63%
09:00 +3°C° 0 mm 4 m/s 742 mmHg 65%
10:00 +4°C° 0 mm 4 m/s 742 mmHg 66%
11:00 +4°C° 0 mm 4 m/s 742 mmHg 68%
12:00 +4°C° 0 mm 4 m/s 741 mmHg 72%
13:00 +3°C° 0 mm 4 m/s 741 mmHg 77%
14:00 +3°C° 0 mm 4 m/s 741 mmHg 81%
15:00 +2°C° 0 mm 3 m/s 741 mmHg 86%
16:00 +2°C° 0 mm 3 m/s 740 mmHg 91%
17:00 +1°C° 0 mm 3 m/s 740 mmHg 96%
18:00 +1°C° 0.2 mm 3 m/s 739 mmHg 96%
19:00 +2°C° 0.2 mm 3 m/s 739 mmHg 96%
20:00 +2°C° 0.2 mm 3 m/s 739 mmHg 96%
21:00 +2°C° 0.1 mm 3 m/s 738 mmHg 95%
22:00 +2°C° 0.1 mm 3 m/s 737 mmHg 94%
23:00 +3°C° 0.1 mm 3 m/s 736 mmHg 93%

21 Avril, Mercredi

Heure Température Précipitation Vent Pression Humidité
00:00 +1°C° 0.8 mm 4 m/s 735 mmHg 94%
01:00 +1°C° 0.8 mm 4 m/s 734 mmHg 95%
02:00 +1°C° 0.8 mm 4 m/s 733 mmHg 96%
03:00 0°C° 1.6 mm 4 m/s 732 mmHg 97%
04:00 0°C° 1.6 mm 4 m/s 731 mmHg 97%
05:00 0°C° 1.6 mm 4 m/s 730 mmHg 97%
06:00 -1°C° 1.1 mm 4 m/s 730 mmHg 97%
07:00 0°C° 1.1 mm 3 m/s 729 mmHg 97%
08:00 0°C° 1.1 mm 3 m/s 729 mmHg 97%
09:00 0°C° 0.3 mm 3 m/s 729 mmHg 97%
10:00 +1°C° 0.3 mm 3 m/s 728 mmHg 97%
11:00 +2°C° 0.3 mm 2 m/s 728 mmHg 97%
12:00 +2°C° 0.4 mm 2 m/s 728 mmHg 98%
13:00 +1°C° 0.4 mm 3 m/s 728 mmHg 98%
14:00 +1°C° 0.4 mm 3 m/s 728 mmHg 98%
15:00 0°C° 0.3 mm 3 m/s 728 mmHg 98%
16:00 0°C° 0.3 mm 3 m/s 729 mmHg 97%
17:00 0°C° 0.3 mm 3 m/s 729 mmHg 97%
18:00 0°C° 0.2 mm 3 m/s 729 mmHg 97%
19:00 0°C° 0.2 mm 3 m/s 730 mmHg 97%
20:00 0°C° 0.2 mm 3 m/s 731 mmHg 97%
21:00 0°C° 0.1 mm 3 m/s 731 mmHg 97%
22:00 0°C° 0.1 mm 3 m/s 732 mmHg 97%
23:00 0°C° 0.1 mm 3 m/s 732 mmHg 97%

22 Avril, Jeudi

Heure Température Précipitation Vent Pression Humidité
00:00 +1°C° 0.1 mm 3 m/s 733 mmHg 97%
01:00 +1°C° 0.1 mm 3 m/s 734 mmHg 96%
02:00 +2°C° 0.1 mm 3 m/s 734 mmHg 95%
03:00 +2°C° 0 mm 2 m/s 735 mmHg 96%
04:00 +2°C° 0 mm 2 m/s 735 mmHg 96%
05:00 +2°C° 0 mm 1 m/s 736 mmHg 97%
06:00 +3°C° 0 mm 2 m/s 736 mmHg 92%
07:00 +4°C° 0 mm 2 m/s 737 mmHg 88%
08:00 +5°C° 0 mm 2 m/s 737 mmHg 83%
09:00 +7°C° 0 mm 2 m/s 738 mmHg 77%
10:00 +8°C° 0 mm 2 m/s 738 mmHg 71%
11:00 +10°C° 0 mm 3 m/s 739 mmHg 66%
12:00 +10°C° 0.2 mm 3 m/s 739 mmHg 65%
13:00 +10°C° 0.2 mm 2 m/s 739 mmHg 65%
14:00 +10°C° 0.2 mm 2 m/s 740 mmHg 64%
15:00 +10°C° 0.2 mm 2 m/s 740 mmHg 67%
16:00 +11°C° 0.2 mm 1 m/s 740 mmHg 69%
17:00 +11°C° 0.2 mm 1 m/s 741 mmHg 72%
18:00 +10°C° 0 mm 1 m/s 741 mmHg 77%
19:00 +8°C° 0 mm 1 m/s 741 mmHg 83%
20:00 +6°C° 0 mm 2 m/s 742 mmHg 88%
21:00 +5°C° 0 mm 2 m/s 742 mmHg 90%
22:00 +5°C° 0 mm 2 m/s 742 mmHg 92%
23:00 +4°C° 0 mm 2 m/s 742 mmHg 93%

23 Avril, Vendredi

Heure Température Précipitation Vent Pression Humidité
00:00 +4°C° 0 mm 2 m/s 742 mmHg 94%
01:00 +4°C° 0 mm 2 m/s 742 mmHg 94%
02:00 +4°C° 0 mm 2 m/s 743 mmHg 95%
03:00 +4°C° 0 mm 2 m/s 743 mmHg 95%
04:00 +3°C° 0 mm 2 m/s 743 mmHg 95%
05:00 +3°C° 0 mm 2 m/s 743 mmHg 95%
06:00 +5°C° 0 mm 2 m/s 743 mmHg 90%
07:00 +7°C° 0 mm 2 m/s 744 mmHg 85%
08:00 +9°C° 0 mm 2 m/s 744 mmHg 80%
09:00 +10°C° 0 mm 2 m/s 744 mmHg 73%
10:00 +13°C° 0 mm 2 m/s 744 mmHg 67%
11:00 +13°C° 0 mm 3 m/s 745 mmHg 60%
12:00 +15°C° 0 mm 2 m/s 745 mmHg 56%
13:00 +15°C° 0 mm 2 m/s 744 mmHg 52%
14:00 +16°C° 0 mm 2 m/s 744 mmHg 49%
15:00 +16°C° 0 mm 2 m/s 745 mmHg 54%
16:00 +15°C° 0 mm 2 m/s 745 mmHg 58%
17:00 +15°C° 0 mm 2 m/s 745 mmHg 63%
18:00 +13°C° 0.4 mm 2 m/s 745 mmHg 72%
19:00 +11°C° 0.4 mm 1 m/s 745 mmHg 81%
20:00 +10°C° 0.4 mm 1 m/s 746 mmHg 89%
21:00 +9°C° 0.2 mm 1 m/s 746 mmHg 90%
22:00 +9°C° 0.2 mm 1 m/s 746 mmHg 91%
23:00 +9°C° 0.2 mm 1 m/s 746 mmHg 93%
Voir plus

Nous avons besoin de votre consentement

Meteoprog et ses fournisseurs de services peuvent stocker et accéder à des données personnelles telles que des cookies, des identifiants d'appareils ou d'autres technologies similaires sur votre appareil et traiter ces données pour personnaliser le contenu et les publicités, ainsi que pour fournir des fonctionnalités de médias sociaux et analyser le trafic.

  • Stocker et/ou accéder à des informations sur votre appareil

    Des cookies, des identifiants d'appareils ou d'autres informations peuvent être stockés ou accessibles sur votre appareil aux fins indiquées ci-dessus.

  • Annonces et contenus personnalisés, mesure des annonces et des contenus, connaissance de l'audience et développement de produits

    Les annonces et le contenu peuvent être personnalisés en fonction d'un profil. D'autres données peuvent être ajoutées pour mieux personnaliser les annonces et le contenu. Les performances des publicités et du contenu peuvent être mesurées. Il est possible d'obtenir des informations sur le public qui a vu les publicités et le contenu. Ces données peuvent être utilisées pour développer ou améliorer l'expérience de l'utilisateur, les systèmes et les logiciels.

En cliquant sur "J'accepte", vous autorisez l'utilisation de cookies, des identifiants d'appareils, des balises web ou d'autres technologies similaires. Vos paramètres peuvent être modifiés dans le navigateur de votre appareil.

Dans certains cas, des intérêts légitimes peuvent être invoqués plutôt qu'un consentement. Vous pouvez en savoir plus à ce sujet dans notre Politique de confidentialité et de cookies.